Vorticity
nan nan nan nan nan nan nan nan nan nan nan nan nan nan nan nan nan nan nan nan nan nan nan nan nan nan nan nan nan nan nan nan nan nan nan nan nan nan nan nan nan nan nan nan nan nan nan nan nan nan nan nan nan nan
nan 11 11 9 8 8 7 9 9 8 12 14 14 17 14 9 1 3 9 10 9 9 7 13 10 5 5 9 15 6 6 11 11 12 11 10 9 15 15 12 10 10 11 9 12 9 24 7 -0 14 10 13 15 nan
nan 9 7 8 7 7 7 10 9 6 6 7 13 14 15 10 -1 3 10 9 8 11 7 12 14 9 8 5 7 7 10 10 7 8 12 15 12 13 15 11 9 14 14 7 11 15 10 6 4 7 11 15 17 nan
nan 8 8 8 7 7 8 9 12 8 12 16 6 11 12 10 3 2 9 8 6 8 12 12 13 12 14 14 7 3 4 9 11 12 8 9 14 12 10 14 11 16 17 9 5 10 12 18 12 10 10 14 14 nan
nan 8 8 7 8 9 9 10 9 7 16 23 15 8 11 13 6 -0 8 8 6 5 9 9 18 22 18 19 12 9 7 4 8 11 9 8 12 13 12 14 19 13 9 10 9 15 13 21 26 13 13 12 12 nan
nan 9 8 8 8 8 7 10 13 11 13 20 24 12 8 11 1 0 10 15 12 9 9 10 16 24 17 15 16 11 7 8 8 10 11 14 12 10 10 10 20 11 9 12 15 15 18 16 18 14 13 13 12 nan
nan 8 9 10 11 9 11 12 14 11 8 16 30 21 9 4 -1 2 8 23 20 6 8 11 10 14 15 12 13 16 12 9 11 11 12 11 15 8 6 16 13 12 13 15 13 6 10 14 12 16 14 13 13 nan
nan 10 11 11 11 10 9 9 9 6 5 20 29 17 10 -3 0 9 14 17 9 4 9 11 13 12 12 11 11 13 14 13 12 9 10 12 12 10 13 16 9 12 13 9 6 9 16 20 15 12 11 12 13 nan
nan 24 20 17 17 13 8 8 7 8 8 26 20 2 1 6 11 18 16 5 1 12 12 10 9 12 12 10 12 12 11 11 11 12 12 12 10 10 14 16 14 9 10 11 12 16 17 13 10 10 10 10 9 nan
nan 43 36 34 29 24 15 9 8 14 21 14 0 2 10 19 12 6 6 11 12 10 10 11 11 13 12 10 13 13 12 12 10 11 10 11 10 11 14 19 16 11 13 11 8 10 11 11 11 10 9 9 10 nan
nan 36 37 33 29 26 21 11 11 6 2 2 9 9 15 14 7 7 10 12 10 12 11 13 11 10 12 10 10 11 14 11 12 10 10 13 13 11 15 15 12 13 7 3 9 17 17 14 12 11 10 11 12 nan
nan 22 25 24 22 19 18 11 2 1 9 9 10 12 11 8 10 9 11 14 12 13 14 12 11 11 11 10 11 11 12 14 12 9 12 11 15 15 13 10 11 12 6 7 18 20 18 16 13 12 12 13 13 nan
nan 17 18 18 17 16 12 2 5 15 8 6 8 10 10 13 13 14 11 10 15 12 12 11 8 12 11 11 12 14 11 11 12 9 9 14 16 14 10 8 11 10 11 12 15 16 16 14 13 14 12 12 14 nan
nan 9 10 6 4 4 6 14 10 -3 3 13 13 11 13 11 10 11 11 12 12 16 14 9 9 11 12 12 12 13 11 13 11 11 12 15 15 12 9 10 11 9 11 12 11 12 13 13 12 13 13 12 11 nan
nan 13 4 4 3 4 8 11 4 3 11 13 12 10 13 11 13 10 13 13 12 14 10 9 9 11 13 11 12 14 11 10 11 13 13 15 16 11 10 10 11 11 11 11 12 12 12 12 11 11 11 11 10 nan
nan 4 -2 4 5 10 19 18 11 12 11 10 14 12 11 13 11 11 11 12 12 11 11 11 12 11 11 13 12 10 12 12 13 12 13 16 12 10 11 12 12 12 12 11 12 12 12 12 13 11 11 12 13 nan
nan -2 5 19 15 6 14 18 11 12 13 12 12 12 11 13 11 12 11 10 12 13 12 12 10 12 13 12 11 11 12 15 13 11 12 16 16 12 11 12 12 13 13 12 12 11 11 12 13 12 11 11 12 nan
nan 5 12 25 19 8 9 13 13 11 11 12 11 11 12 12 12 10 11 13 14 13 12 13 13 11 13 13 11 13 11 9 11 12 11 14 15 14 14 13 12 13 12 12 11 11 12 11 8 9 12 12 11 nan
nan 10 12 18 19 13 12 11 11 13 10 12 11 11 12 11 10 11 12 13 14 14 14 11 12 12 11 12 13 14 12 12 11 9 9 12 15 15 13 11 11 12 13 13 10 9 11 10 10 13 12 11 10 nan
nan 7 9 18 18 14 11 10 14 13 12 12 11 11 12 11 11 11 12 12 13 12 11 12 13 13 13 12 12 14 15 13 12 9 9 10 13 13 12 11 11 11 10 10 11 12 10 11 13 13 13 13 12 nan
nan 7 13 16 14 13 13 12 13 13 13 11 12 11 12 11 12 12 11 13 13 13 13 12 13 11 12 13 14 16 15 14 12 13 14 13 11 12 11 13 12 10 10 11 11 11 10 12 13 14 13 13 13 nan
nan 13 16 14 14 12 10 10 13 13 12 13 11 12 12 12 10 10 12 14 13 13 12 13 13 12 12 11 12 14 13 12 12 13 15 15 12 11 11 12 12 11 11 12 12 12 12 13 13 14 13 13 14 nan
nan 16 12 14 13 12 11 12 12 13 14 11 11 11 11 11 10 12 13 12 12 12 14 15 12 11 12 12 12 11 11 9 10 12 10 9 11 12 13 12 12 13 12 12 13 14 14 14 13 12 13 13 12 nan
nan 13 12 13 13 14 12 14 13 12 13 13 12 11 11 10 12 14 12 13 12 13 14 13 11 10 11 11 9 10 10 10 11 11 12 12 12 12 12 12 12 12 13 14 13 13 13 14 12 12 12 12 12 nan
nan 10 13 13 13 12 13 11 12 14 13 12 12 13 12 12 12 12 14 15 14 11 12 11 10 12 11 10 12 12 12 12 11 10 11 11 12 12 12 12 12 12 13 12 13 12 12 13 12 13 12 13 14 nan
nan 11 15 13 12 14 14 13 12 10 12 12 10 11 12 12 13 13 16 14 12 14 12 12 11 11 10 13 14 14 13 11 11 12 14 12 11 11 12 11 11 12 12 13 15 14 12 12 14 13 12 15 13 nan
nan 11 10 11 13 14 12 12 13 14 14 12 13 11 10 12 13 14 13 13 13 13 14 15 13 13 13 12 11 14 15 13 11 13 17 18 13 13 14 14 12 17 19 14 13 15 14 12 13 12 12 14 14 nan
nan 15 13 12 10 12 13 12 12 12 13 14 15 12 11 10 13 13 12 14 13 12 11 11 13 17 17 14 13 12 11 12 12 11 10 11 13 14 14 12 16 18 16 16 14 14 15 14 13 13 13 12 12 nan
nan 12 13 13 13 13 13 11 13 13 12 11 11 13 13 12 13 14 13 12 11 11 12 11 11 13 14 13 12 13 13 13 11 9 8 8 11 13 11 13 13 14 15 16 15 17 16 13 15 15 14 12 13 nan
nan 12 14 12 12 13 12 11 13 13 11 10 12 13 12 13 12 13 14 13 12 10 10 12 13 12 11 10 9 10 9 10 11 14 16 14 12 14 14 12 13 14 15 14 12 14 14 11 11 13 13 13 13 nan
nan 13 12 11 13 14 11 11 12 12 13 13 11 11 11 13 15 16 14 11 12 13 13 12 10 11 12 11 11 11 11 13 13 12 12 14 16 14 14 13 13 14 15 14 13 12 10 10 10 12 11 11 11 nan
nan 13 12 13 13 12 13 11 12 13 13 13 13 14 14 12 13 16 17 15 12 12 11 11 12 11 9 10 12 12 14 18 17 16 11 9 13 14 14 14 14 15 15 14 13 15 14 10 12 14 15 15 13 nan
nan nan nan nan nan nan nan nan nan nan nan nan nan nan nan nan nan nan nan nan nan nan nan nan nan nan nan nan nan nan nan nan nan nan nan nan nan nan nan nan nan nan nan nan nan nan nan nan nan nan nan nan nan nan
CAPE
4 11 12 31 40 20 14 30 20 17 14 6 27 25 41 62 39 34 53 80 20 52 49 31 17 48 98 152 121 118 183 124 108 79 55 45 45 53 61 75 23 65 67 69 69 53 60 0 0 0 60 0 0 0
8 23 21 8 4 5 6 13 37 33 7 22 16 61 80 161 28 22 28 48 22 30 41 16 1 1 53 117 136 142 73 117 146 107 104 88 75 87 49 53 53 82 192 183 98 121 0 0 1 0 0 0 0 2
5 8 0 0 0 0 0 0 16 5 1 4 35 74 80 122 21 13 88 75 44 34 3 0 0 0 1 37 204 168 117 109 151 152 143 147 100 83 90 58 55 62 16 75 0 9 0 0 0 0 0 0 0 2
3 2 3 2 0 0 0 2 11 6 2 2 1 29 46 52 35 1 11 56 46 13 15 0 0 0 0 6 86 174 132 62 75 126 131 207 181 127 126 116 104 43 1 6 3 0 0 0 0 0 0 0 0 1
1 2 4 3 1 1 0 1 0 3 0 16 3 2 47 62 53 95 153 117 40 18 35 26 39 64 31 37 43 87 132 74 128 201 72 25 52 85 5 31 36 4 31 54 127 8 4 8 0 0 0 0 1 1
1 3 7 6 4 0 0 0 0 1 1 14 21 7 55 90 98 131 48 71 73 48 30 26 110 106 76 70 71 18 27 29 70 65 56 61 17 14 203 223 5 0 0 0 0 0 0 0 0 0 0 0 1 1
6 8 7 6 6 3 1 16 23 34 8 8 69 94 128 131 232 41 47 30 13 64 77 45 87 11 2 8 46 49 66 34 33 13 89 132 10 51 296 53 0 0 0 0 0 0 0 0 0 0 0 0 1 2
17 15 17 21 19 11 11 21 10 12 0 3 63 89 70 93 40 42 138 6 123 38 55 55 28 15 6 10 11 7 7 5 7 72 19 29 12 121 44 2 0 0 1 0 0 0 0 0 0 0 0 0 1 2
17 19 19 19 18 6 10 5 9 7 3 42 76 106 187 58 42 15 60 65 43 49 27 50 56 57 6 18 13 27 18 42 13 42 31 15 88 54 7 0 0 0 0 1 0 0 0 0 0 0 0 2 1 3
28 10 4 6 16 12 3 5 6 9 33 107 108 59 86 57 52 78 12 23 3 6 5 15 4 32 17 62 30 24 9 26 63 33 0 66 40 0 0 0 0 0 0 0 0 0 0 1 2 1 0 1 1 2
18 14 54 13 24 18 8 2 7 67 36 21 53 3 16 48 9 10 54 39 15 10 16 14 1 23 0 22 8 0 23 12 9 42 32 39 25 1 0 1 0 0 0 0 0 0 0 0 2 2 2 2 3 3
51 31 13 11 9 11 10 11 30 13 16 3 4 6 3 11 79 13 19 0 2 23 5 32 40 22 2 0 37 4 12 4 1 0 30 7 3 4 2 1 0 0 0 0 0 0 1 1 3 4 4 4 4 7
27 33 34 24 23 33 20 14 1 0 8 16 4 2 8 1 4 1 0 0 12 17 6 38 52 28 12 10 8 0 2 5 0 36 7 4 5 3 5 1 0 0 0 0 0 1 1 3 2 5 5 11 4 2
15 20 26 28 20 18 16 8 5 5 0 4 1 2 2 3 2 2 7 14 2 4 23 74 16 44 0 0 0 0 2 0 13 10 3 8 4 6 3 0 0 0 0 0 2 3 5 3 2 6 4 3 5 2
5 15 19 17 22 26 11 0 0 0 0 0 0 0 4 6 3 1 18 10 1 4 0 22 6 0 0 0 0 0 1 1 1 3 8 8 8 2 1 2 1 0 0 1 2 1 2 3 4 4 5 4 2 2
0 3 3 8 3 0 0 0 0 0 0 0 1 16 9 22 23 18 22 4 2 0 0 3 0 0 0 0 0 0 0 0 4 12 15 5 7 7 4 2 0 0 0 1 2 1 3 2 3 6 7 4 3 2
0 0 0 0 0 0 0 0 0 0 0 1 7 6 5 8 8 11 1 3 0 4 81 0 0 0 0 0 0 0 4 11 23 19 10 12 10 6 1 0 0 0 1 2 2 2 3 5 4 5 5 5 4 4
0 0 0 0 0 0 0 0 0 0 2 6 8 6 3 1 10 6 3 1 1 4 1 0 0 0 1 0 0 16 15 11 9 7 6 9 7 6 4 3 0 1 2 2 1 3 4 3 4 5 5 4 5 5
0 0 0 0 0 0 0 0 0 0 4 5 7 6 6 9 2 0 0 0 0 0 0 0 0 0 3 9 18 17 5 3 7 5 3 4 9 6 4 4 4 4 2 2 1 1 2 2 5 4 3 3 3 5
0 0 0 0 0 0 0 0 0 0 3 3 1 2 2 2 0 0 0 0 0 0 0 0 1 9 13 7 4 2 1 0 0 7 6 5 4 5 7 4 8 2 1 1 2 2 5 5 3 4 4 4 9 9
0 0 0 0 0 0 0 0 0 0 0 2 0 0 0 0 0 0 0 0 0 0 2 4 13 6 2 0 0 0 0 0 2 12 12 5 5 3 3 5 4 3 1 5 7 4 3 6 5 4 8 11 12 12
0 0 0 0 0 0 0 0 1 0 2 4 1 0 1 4 1 0 0 0 1 6 3 7 7 3 0 0 0 0 0 0 0 0 0 0 3 2 2 4 6 5 7 6 7 7 6 5 6 7 12 13 9 11
0 0 0 0 0 0 1 0 0 0 0 2 0 0 1 1 0 0 0 2 1 3 2 0 6 6 2 0 0 0 0 1 1 5 1 2 3 5 4 3 4 6 5 5 5 5 6 3 7 10 10 11 13 11
0 0 0 0 0 0 0 0 0 1 4 7 1 0 1 2 0 0 0 3 1 0 0 0 3 5 7 3 3 0 0 0 0 1 0 0 5 3 3 5 5 6 5 5 5 6 5 6 6 10 9 9 10 7
0 0 0 0 0 0 0 1 0 0 3 2 0 0 2 2 2 0 0 11 5 9 16 18 19 17 22 22 7 8 0 0 0 1 3 0 2 2 3 3 5 5 5 10 7 5 6 7 7 9 9 10 8 8
0 0 0 0 0 0 0 2 1 1 2 2 4 5 5 6 1 0 0 12 22 26 36 47 27 15 4 5 17 10 5 2 2 9 3 0 0 9 8 6 8 9 5 10 9 8 7 7 8 6 9 8 4 8
0 0 1 1 1 0 1 0 0 1 1 1 4 6 4 0 0 0 6 4 2 3 0 1 0 0 8 4 0 0 0 1 1 2 0 0 0 1 10 11 6 5 4 7 9 11 10 9 9 9 8 10 8 7
0 0 0 0 0 0 0 0 0 0 0 0 0 1 0 0 1 4 5 4 3 1 0 0 0 0 10 5 3 4 4 3 3 2 3 3 2 4 2 4 0 0 3 6 9 7 10 8 9 9 9 8 8 10
2 0 0 0 0 0 1 0 1 1 4 1 4 1 0 1 4 4 2 2 1 0 3 5 4 6 5 4 5 5 6 4 5 3 4 9 7 5 4 4 5 5 5 7 0 2 3 3 4 8 7 8 8 7
2 1 0 0 0 0 4 3 10 10 2 3 5 4 2 1 2 2 2 5 3 3 11 13 6 8 7 7 6 5 7 7 4 9 10 9 11 5 3 3 4 4 4 7 7 6 2 4 5 7 5 4 6 5
0 1 1 0 0 2 3 7 10 10 13 20 21 22 16 16 5 4 5 7 8 5 2 9 9 8 7 5 10 10 8 4 0 1 0 1 1 4 2 1 1 3 9 5 5 7 7 7 8 6 4 3 2 1
1 0 1 0 2 3 5 12 13 11 10 9 4 12 9 10 8 2 4 6 8 8 4 7 9 10 3 24 29 41 0 7 2 3 0 3 5 2 4 1 2 2 1 4 5 8 5 6 7 6 6 3 2 2
2 2 1 1 2 2 9 9 1 1 6 4 3 3 7 8 5 0 0 2 8 12 9 9 21 36 13 5 7 17 0 2 0 1 1 0 1 1 6 8 7 7 5 6 6 6 5 3 4 4 4 2 2 2